Location: Unspecified
(0.0000°N, 0.0000°E)
Time: 02:53:30
(UTC+00:00)

Vanguard 2 Rocket - Pass Details

Date: 20 December 2018
Orbit: 556 x 3325 km, 32.9° (Epoch: 18 March)

Event Time Altitude Azimuth Distance (km) Brightness Sun altitude
Rises 15:12:35 0° 268° (W) 5,008 11.4 37.2°
Reaches altitude 10° 15:16:04 10° 257° (WSW) 4,394 11.6 36.5°
Maximum altitude 15:26:56 30° 200° (SSW) 3,954 11.2 34.1°
Drops below altitude 10° 15:42:20 10° 146° (SE) 6,180 11.2 30.7°
Sets 15:48:41 0° 136° (SE) 7,312 11.4 29.3°
